{"data":{"norad_id":22826,"intl_designator":"1993-061D","name":"ITAMSAT (IO-26)","alt_names":[],"object_type":"PAYLOAD","status":"ACTIVE","operator":null,"country":"IT","launch_date":"1993-09-26","launch_site_code":"FRGUI","launch_vehicle":null,"mission":null,"orbit_class":"UNKNOWN","rcs_meters":0.1624,"size_class":null,"mass_kg":null,"dimensions":null,"purposes":["comms"],"wikipedia_slug":null,"has_3d_model":false,"image_url":null,"decayed_at":null,"tle_current":{"epoch":"2026-09-20T02:47:50.879040Z","epoch_age_seconds":44393,"freshness":"FRESH","line1":"1 22826U 93061D   26263.11656110  .00000033  00000+0  29246-4 0  9991","line2":"2 22826  98.6736 330.3794 0009321 158.3201 201.8378 14.31391062720890","mean_motion":14.31391062,"eccentricity":0.0009321,"inclination_deg":98.6736,"raan_deg":330.3794,"arg_perigee_deg":158.3201,"mean_anomaly_deg":201.8378,"bstar":2.9246e-5,"rev_number":72089,"period_min":100.60143857458,"perigee_km":780.4061309443,"apogee_km":793.76353748765,"semimajor_km":7165.221834216,"source":"CELESTRAK","updated_at":"2026-09-20T09:00:45.227239Z"}}}